This demonstration page uses our WeatherBlox Daily Observations layout. Learn more.

38.88101, -77.10428

Hourly Observations for March 7, 2017

Temp ( °F °C ) Dew Point ( °F °C ) Humidity (%) Winds ( mph kmh ) Pressure ( in mb ) Visibility ( mi km ) Precip ( " mm )
12:52 am 00:52 Cloudy 47 8.3 39 3.9 74 74 SSE 5 7 30.33 1027 10 16.09344 0 0
1:52 am 01:52 Cloudy 47 8.3 41 5 80 80 ESE 3 6 30.3 1026 10 16.09344 0 0
2:52 am 02:52 Cloudy 48 8.9 40 4.4 74 74 Calm 30.27 1025 10 16.09344 0.001 0.001
3:52 am 03:52 Cloudy 48 8.9 41 5 77 77 Calm 30.27 1025 10 16.09344 0 0
4:52 am 04:52 Cloudy 48 8.9 41 5 77 77 Calm 30.27 1025 10 16.09344 0 0
5:52 am 05:52 Cloudy 50 10 42 5.6 74 74 SSW 6 9 30.27 1025 10 16.09344 0 0
6:52 am 06:52 Cloudy with Light Rain 53 11.7 45 7.2 74 74 S 9 15 30.27 1025 10 16.09344 0.001 0.001
7:52 am 07:52 Cloudy 53 11.7 45 7.2 74 74 S 8 13 30.27 1025 10 16.09344 0.001 0.001
8:52 am 08:52 Cloudy 54 12.2 45 7.2 72 72 S 10 17 30.27 1025 10 16.09344 0 0
9:52 am 09:52 Cloudy 57 13.9 46 7.8 67 67 S 13 20 30.24 1024 10 16.09344 0 0
10:52 am 10:52 Cloudy 65 18.3 49 9.4 56 56 S 17 28 30.21 1023 10 16.09344 0 0
11:52 am 11:52 Cloudy 67 19.4 49 9.4 53 53 SSW 26 43 30.18 1022 10 16.09344 0 0
12:52 pm 12:52 Cloudy 69 20.6 49 9.4 49 49 SSW 21 33 30.15 1021 10 16.09344 0 0
1:52 pm 13:52 Cloudy 70 21.1 48 8.9 46 46 SSW 25 41 30.15 1021 10 16.09344 0 0
2:52 pm 14:52 Cloudy 69 20.6 48 8.9 47 47 SSW 21 33 30.12 1020 10 16.09344 0 0
3:52 pm 15:52 Mostly Cloudy 70 21.1 48 8.9 46 46 SSW 17 28 30.12 1020 10 16.09344 0 0
4:52 pm 16:52 Cloudy with Light Rain 68 20 48 8.9 49 49 SSW 21 33 30.09 1019 10 16.09344 0.001 0.001
5:52 pm 17:52 Cloudy 65 18.3 50 10 59 59 SW 6 9 30.12 1020 10 16.09344 0.001 0.001
6:52 pm 18:52 Cloudy 63 17.2 51 10.6 65 65 Calm 30.12 1020 10 16.09344 0.001 0.001
7:52 pm 19:52 Cloudy with Light Rain 58 14.4 55 12.8 90 90 ESE 6 9 30.12 1020 10 16.09344 0.02 0.508
8:52 pm 20:52 Cloudy with Light Rain 57 13.9 55 12.8 93 93 S 7 11 30.09 1019 10 16.09344 0.03 0.762
9:52 pm 21:52 Cloudy 56 13.3 55 12.8 97 97 SSW 5 7 30.06 1018 10 16.09344 0.02 0.508
10:52 pm 22:52 Cloudy 55 12.8 54 12.2 96 96 S 10 17 30.03 1017 10 16.09344 0 0
11:52 pm 23:52 Cloudy 57 13.9 52 11.1 83 83 S 12 19 30 1016 10 16.09344 0 0

Powered by AerisWeather